Regional Weather Roundup
Issued by NWS Wakefield, VA

Home | Current Version | Previous Version | Graphics & Text | Print | Product List | Glossary On
Versions: 1 2 3 4 5 6 7 8 9 10 11 12 13 14 15 16 17 18 19 20 21 22 23 24 25 26 27 28
000
ASUS41 KAKQ 260514
RWRAKQ

REGIONAL WEATHER ROUNDUP
NATIONAL WEATHER SERVICE WAKEFIELD VA
1200 AM EST SUN FEB 26 2017

Note: "fair" indicates few or no clouds below 12,000 feet with no
significant weather and/or obstructions to visibility. * = Denotes
station may not report precipitation (e.g., rain,snow,etc.),
thunder or fog.

VAZ042-051-052>054-056-260600-
NORTHERN VIRGINIA

CITY           SKY/WX    TMP DP  RH WIND       PRES   REMARKS
WASH NATIONAL  PTCLDY    44  22  41 NW14G28   29.86R
DULLES         MOCLDY    41  21  44 NW21G28   29.86R
FORT BELVOIR   CLEAR     44  20  39 NW15G24   29.88R
QUANTICO       CLEAR     45  23  42 N21G29    29.88R
FREDERICKSBRG* CLEAR     46  25  43 NW9       29.85R
STAFFORD*      CLEAR     42  25  50 NW20      29.89R
WARRENTON      CLEAR     42  19  38 NW16      29.87R
CULPEPER*      CLEAR     43  23  45 NW14      29.87R
MANASSAS*      CLEAR     41  21  44 NW17G26   29.88R
LEESBURG*      CLOUDY    43  28  56 MISG      29.88R
WINCHESTER     MOCLDY    36  21  55 W24G32    29.87R WCI  24
FRONT ROYAL*   CLOUDY    37  21  52 W10G24    29.87R
LURAY*         NOT AVBL
$$

VAZ048-049-060>072-079>083-260600-
CENTRAL AND SOUTH CENTRAL VIRGINIA

CITY           SKY/WX    TMP DP  RH WIND       PRES   REMARKS
RICHMOND       CLEAR     49  22  34 NW16      29.83R
CHESTERFIELD*  FAIR      46  16  29 NW13      29.86R
PETERSBURG*    CLEAR     48  19  31 W10G18    29.85R
HANOVER        CLEAR     47  21  35 W9        29.85R
TAPPAHANNOCK*  CLEAR     51   8  18 NE5       29.83R
QUINTON*       NOT AVBL
CHARLOTTSVILLE CLEAR     43  20  39 NW6       29.87R
GORDONSVILLE*  CLEAR     43  21  42 CALM      29.86R
ORANGE*        CLEAR     43  21  42 W8        29.87R
LOUISA*        CLEAR     46  25  42 W13G22    29.85R
BUMPASS*       FAIR      46  19  34 W7        29.84R
FARMVILLE*     CLEAR     45  21  38 CALM      29.88R
CREWE*         NOT AVBL
FORT PICKETT*  NOT AVBL
CHASE CITY*    NOT AVBL
CLARKSVILLE*   NOT AVBL
SOUTH HILL*    CLEAR     46  24  41 NW3       29.93R
LAWRENCEVILLE* FAIR      48  21  34 W9        29.85R
EMPORIA*       CLEAR     50  21  32 W10G16    29.86R
$$

VAZ088>098-260600-
SOUTHEAST VIRGINIA

CITY           SKY/WX    TMP DP  RH WIND       PRES   REMARKS
NORFOLK        CLOUDY    54  44  69 VRB3      29.80R
VIRGINIA BEACH MOCLDY    52  42  69 NW5       29.79R
NORFOLK NAVAL  NOT AVBL
WEST POINT*    PTCLDY    52  23  31 NW7       29.83R
SALUDA*        NOT AVBL
NEWPORT NEWS   CLOUDY    55  26  32 NW12      29.80R
LANGLEY AFB    CLOUDY    52  50  92 CALM      29.79R
FORT EUSTIS    CLOUDY    54  28  37 NW13      29.79R
WILLIAMSBURG*  CLOUDY    54  27  35 NW12G23   29.82R
HR EXEC AP*    NOT AVBL
FRANKLIN*      CLEAR     50  26  39 W8        29.83R
US460-WAKEFLD  CLEAR     52  26  36 VRB5      29.83R
$$

VAZ020-022-025-037-045-260600-
WEST CENTRAL AND SOUTHWEST VIRGINIA

CITY           SKY/WX    TMP DP  RH WIND       PRES   REMARKS
STAUNTON*      CLEAR     35  19  52 W9        29.88R
WAYNESBORO*    NOT AVBL
HOT SPRINGS VA CLOUDY    27  18  69 W26G38    29.78S WCI  11
LYNCHBURG      CLEAR     39  20  46 W10G17    29.90R
DANVILLE       CLEAR     44  20  38 NW15G22   29.92R
SOUTH BOSTON*  NOT AVBL
MARTINSVILLE   CLEAR     40  17  39 NW17      29.96R
ROANOKE        CLEAR     37  17  44 NW15      29.94R
BLACKSBURG     PTCLDY    32  20  62 NW18G26   29.95F WCI  20
DUBLIN*        PTCLDY    33  20  59 W15G28    29.96R WCI  23
MARION*        PTCLDY    31  20  63 W22G31    29.96S WCI  18
HILLSVILLE*    CLEAR     31  19  62 NW15G24   29.89S WCI  20
RICHLANDS*     CLOUDY    28  19  67 W8G17     30.00S
WISE*          CLOUDY    30  21  69 NW3       30.03S
ABINGDON*      CLEAR     34  19  55 NW7       30.03R
$$

MDZ021>025-VAZ099-100-260600-
SOUTHERN MARYLAND AND THE DELMARVA PENINSULA

CITY           SKY/WX    TMP DP  RH WIND       PRES   REMARKS
PATUXENT RIVER PTCLDY    46  28  49 NW22G30   29.82R
BAY BRIDGE APT MOCLDY    45  27  49 NW22G28   29.84R
LEONARDTOWN    PTCLDY    45  27  49 NW10G21   29.84R
DOVER          PTCLDY    47  33  58 W18G28    29.77R
GEORGETOWN     PTCLDY    50  32  50 NW9G18    29.77R
EASTON         PTCLDY    47  27  46 N22G29    29.85R
CAMBRIDGE      MOCLDY    46  27  46 NW17G26   29.80R
SALISBURY      PTCLDY    48  30  49 NW13      29.78R
OCEAN CITY     MOCLDY    50  31  48 NW14G25   29.76R
WALLOPS ISLAND CLEAR     50  35  56 NW13G25   29.79R
ACCOMACK*      PTCLDY    50  41  71 N10G20    29.78R
$$

NCZ012>017-030>032-260600-
NORTH CENTRAL AND EASTERN NORTH CAROLINA

CITY           SKY/WX    TMP DP  RH WIND       PRES   REMARKS
ROANOKE RAPIDS FAIR      52  27  37 NW10G18   29.86R
RALEIGH        CLEAR     52  20  28 NW10G22   29.89R
ELIZABETH CITY CLOUDY    59  32  36 NW15      29.80R
AHOSKIE*         N/A     54  27  36 CALM      29.84R
EDENTON*       PTCLDY    60  34  37 NW17      29.81R
CURRITUCK*     CLOUDY    56  47  72 N3        29.80R
KILL DEVIL HLS NOT AVBL
MANTEO         MOCLDY    55  47  74 N10G20    29.80R
CAPE HATTERAS  CLEAR     63  48  58 VRB6      29.78R
TARBORO*       NOT AVBL
GOLDSBORO      CLEAR     59  22  24 NW13G22   29.83R
WASHINGTON     CLEAR     58  26  30 NW6       29.82R
GREENVILLE     CLEAR     59  25  27 NW7       29.86R
NEW BERN       CLEAR     60  35  39 N9        29.83R
WILMINGTON     CLEAR     62  25  24 W13       29.84R
$$

VAZ048-260600-
ELSEWHERE

CITY           SKY/WX    TMP DP  RH WIND       PRES   REMARKS
HARRISBURG PA  CLOUDY    40  24  53 NW26G36   29.82R
BALTIMORE      MOCLDY    43  24  47 NW16G28   29.84R
ANNAPOLIS      CLOUDY    46  27  47 NW15G26   29.83R
ANDREWS AFB    PTCLDY    43  22  44 NW20G31   29.84R
PHILADELPHIA   MOCLDY    47  29  49 NW22G33   29.76R
HENDERSON NC   CLEAR     45  19  35 NW9       29.88R
GREENSBORO     CLEAR     43  16  33 NW14      29.93R
ROCKY MOUNT    CLEAR     54  25  32 NW8       29.85R
$$

VAZ100-260600-
MARINE

STATION/POSITION TIME  TEMP    WIND        PRES    WAVE   SWELL
                       AIR SEA DIR/SP/G            HT/PER HT/PER
                 (UTC) (F)     (DEG/KT/KT) (MB)    (FT/S) (FT/S)
CAPE MAY NJ      0448   46 46  310/ 11/ 17 1006.9R
LEWES DE         0448   49 46  320/ 25/ 29 1007.4R
OCEAN-CITY-INLET 0448   51 45  330/ 13/ 16 1008.1R
WACHAPREAGUE VA  0448   52 58  340/  5/ 13 1008.2R
THOMAS POINT MD  0500   45 44  330/ 18/ 19   N/A
GOOSES REEF MD   0500   46 44  360/ 21/ 27 1010.2    3/ 3
COVE POINT MD    0448   46     340/ 17/ 24 1009.9R
SOLOMONS ISLAND  0448   47 45  320/ 15/ 25   N/A
BISHOPS HEAD MD  0448   49 54  320/ 17/ 22 1009.6R
PINEY POINT MD   0448          360/ 23/ 26   N/A
POTOMAC MD       0500   49 46  350/ 14/ 19 1008.7    1/ 2
CAMBRIDGE MD     0448   48 47  300/ 21/ 28 1008.2R
LEWISETTA VA     0448   50 49  340/ 11/ 16 1009.2R
RAPPAHANNOCK LGT 0448          340/ 16/ 17 1009.1R
YORK RVR RNG VA  0448   56     330/ 12/ 14 1008.2R
YORKTOWN VA      0448   56 50  300/ 15/ 19 1008.6R
JAMESTOWN VA     0500   54 54  290/ 16/ 19   N/A     1/ 3
DOMINION TERM VA 0448   55     320/ 15/ 18 1008.8R
KIPTOPEKE VA     0448      52   10/  7/  9   N/A
CHES BAY BRIDGE  0448   52 49   10/  6/ 10 1008.5R
CAPE HENRY VA    0448   51     340/  8/  9   N/A
WILLOUBY STN VA  0448   53      90/  1/  1 1009.7R
S CRANEY ISL VA  0448   55     360/  2/  7 1008.6R
CAPE HENRY BUOY  0442      50                N/A     4/11   2/11
OFFSHORE WE BUOY 0451      50                N/A     4/11   2/11
64NM E OF VA BCH 0450   53 52  350/ 16/ 17 1007.4R   7/11   7/11
DUCK PIER NC     0448   52 48  350/ 10/ 12 1008.0R
44100 DUCK FRF   0405      51                N/A     5/11   2/11
44056 DUCK FRF   0430      50                N/A     4/11   2/11
OREGON INLET NC  0448          350/  9/ 13   N/A
HATTERAS NC      0448   62 64  330/ 15/ 19 1008.1R
DIAMOND SHLS NC  0450   66 74  330/ 23/ 27 1007.5R   9/ 7   3/17
CAPE LOOKOUT NC  0500   65     330/ 20/ 24 1008.8R
$$




USA.gov is the U.S. government's official web portal to all federal, state and local government web resources and services.